Showing default

IMECE, 56178

Orbit data source: Space-Track

IMECE, 56178 is a payload satellite owned by TUBITAK-UZAY (TR) in SSO that was launched on Sat, 15 Apr 2023 UTC via an FALCON 9 launch vehicle from the Air Force Western Test Range (AFWTR). Payload-class satellites include a variety of spacecraft equipped with specific instruments for various scientific and technological missions. These include communications satellites like Starlink; space stations such as the ISS; scientific satellites like the Hubble; Earth observation satellites from companies like Planet Labs, Umbra, and HawkEye 360; GPS; miniature CubeSats for education and research; and military/defense satellites.

Loading next visibility...
Identifier
56178, 2023-054A
Orbit
SSO
Country
Flag of UnknownUnknown / TURK
Related business
Manufacturer
TUBITAK-UZAY
Mission
Operational Civil Imaging
Bus & Motor
IMECE, AOCS
Mass
800 kg wet, ~780 kg dry
Launch date (UTC)
2023-04-15 (3 years ago)
Launch vehicle
FALCON 9
Launch site
Air Force Western Test Range (AFWTR)
Object type
Payload
Rocket body
Debris
Shape & HBR
Hex Cyl + 2 Pan, 4.0 m
Radar Cross Section
4.470 m², Large (>1 m²)

Expand to show TLE details & history
Last TLE update: 16 hours ago

TLE from 16 hours ago
0 IMECE
1 56178U 23054A   25310.28143797  .00000593  00000-0  11749-3 0  9995
2 56178  98.1332 212.3702 0010014 145.6347 214.5507 14.65831094137756
Epoch: 2025-11-06T06:45Z
TLE epoch observation values (Epoch: 2025-11-06T06:45:16.240Z)
Latitude
0.00006°
Longitude
65.31052°
Altitude
683.224 km
Speed
7.512 km/s
True Right ascension
14h 09m 28s
True Declination
0° 00' 00"
Sunlit
Object was in daylight at epoch
Visualization orbit readout
Latitude
Unknown
Longitude
Unknown
Altitude
Unknown
Speed
Unknown
Apparent Right ascension
Unknown
Apparent Declination
Unknown
Sunlit
N/A
Visualization observer readout
Local Sidereal Time
18:57:08
Azimuth
Unknown
Elevation
Unknown
Doppler factor
Unknown
Orbital elements
Apogee altitude
678.538 km
Perigee altitude
664.419 km
Semi-major axis
7,049.616 km
Eccentricity
0.001
Inclination
98.1332°
RAAN
212.3702°
Arg. of periapsis
145.6347°
True anomaly
214.48569°
Mean anomaly
214.5507°
Eccentric anomaly
214.51819°
Mean motion
3.66687 °/min
Orbital period
98.18 mins
BSTAR
0.00011749
Loading maneuver chart data...
Computing Atmospheric mass density...
Loading historical data...
Loading historical data...
Loading historical data...
Loading historical data...
Loading historical data...
Loading historical data...
Loading historical data...

Documentation

Showing up to 5 results
|